Weather in Sakon Nakhon

Thailand     17°09′56″N   104°09′01″E
temp.,
°C
wind,
m/s
gust,
m/s
humid.,
%
clouds,
%
prec.,
mm/h
press.,
hPa
HPBL,
m
24 january, mon
mon2401:00+22se11705 0.0 101019
04:00+20ese127812 0.0 100911
07:00+20nnw22805 0.0 101117
10:00+28n01515 0.0 1013717
13:00+32wsw343230 0.0 10092970
16:00+29nw564398 0.0 1008783
19:00+26n114983 0.0 100920
22:00+24nnw22524 0.0 101011
25 january, tue
tue2501:00+22nnw22556 0.0 101011
04:00+20ene11555 0.0 101011
07:00+19e226427 0.0 101216
10:00+28ese33450 0.0 1013679
13:00+33w23240 0.0 10092834
16:00+33wnw23230 0.0 10072922
19:00+26nw22345 0.0 100816
22:00+24n11395 0.0 101011
26 january, wed
wed2601:00+21ese397418 0.0 1011185
04:00+19ese36875 0.0 1010131
07:00+18ese24875 0.0 101175
10:00+28ese33465 0.0 1013621
13:00+34wsw12235 0.0 10092652
16:00+33nnw23235 0.0 10072917
19:00+27n22330 0.0 100814
22:00+24ne01371 0.0 101011
27 january, thu
thu2701:00+21ese38734 0.0 1010168
04:00+19ese36855 0.0 1010131
07:00+19e22815 0.0 101155
10:00+28e224556 0.0 1013617
13:00+34se122690 0.0 10092224
16:00+34nw2222100 0.0 10072733
19:00+28nne223094 0.0 100815
22:00+25se123618 0.0 101036
28 january, fri
fri2801:00+22ese387137 0.0 1010173
04:00+20ese368122 0.0 1009122
07:00+20ese24849 0.0 1011110
10:00+29ese34458 0.0 1012655
13:00+34sse22274 0.0 10082213
16:00+34nw13258 0.0 10062827
19:00+29ne113537 0.0 100711
22:00+26sw114083 0.0 100811